Weather History for Goshen, IN

Change the Weather History Date:

Wednesday, February 26, 2014

  Actual Average Record
Temperature  
Mean Temperature 12 °F -  
Max Temperature 15 °F 38 °F 61 °F (1976)
Min Temperature 8 °F 21 °F -20 °F (1963)
Degree Days  
Heating Degree Days 54    
Moisture  
Dew Point 3 °F    
Average Humidity 71    
Maximum Humidity 81    
Minimum Humidity 53    
Precipitation  
Precipitation 0.00 in - - ()
Sea Level Pressure  
Sea Level Pressure 30.07 in    
Wind  
Wind Speed 14 mph (West)    
Max Wind Speed 21 mph    
Max Gust Speed 29 mph    
Visibility 6 miles    
Events Snow    
Averages and records for this station are not official NWS values.
T = Trace of Precipitation, MM = Missing Value Source: NWS Daily Summary

Daily Weather History Graph

Daily Weather History Graph

Search for Another Location

Airport:

Trip Planner

Search our weather history database for the weather conditions in past years. The results will help you decide how hot, cold, wet, or windy it might be!

Date:

Astronomy

Feb. 26, 2014 Rise Set
Actual Time 7:22 AM EST 6:30 PM EST
Civil Twilight 6:54 AM EST 6:58 PM EST
Nautical Twilight 6:22 AM EST 7:30 PM EST
Astronomical Twilight 5:50 AM EST 8:02 PM EST
Moon 5:09 AM EST 3:42 PM EST
Length of Visible Light 12h 03m
Length of Day
11h 07m
Waning Crescent, 10% of the Moon is Illuminated
Feb 26
Waning Crescent
Mar 1
New
Mar 8
First Quarter
Mar 16
Full
Mar 23
Last Quarter

Hourly Weather History & Observations

Time (EST) Temp. Windchill Dew Point Humidity Pressure Visibility Wind Dir Wind Speed Gust Speed Precip Events Conditions
12:10 AM 14.0 °F -2.5 °F 5.0 °F 67% 30.08 in 10.0 mi WNW 17.3 mph - N/A   Mostly Cloudy
12:53 AM 12.9 °F -3.4 °F 6.1 °F 74% 30.13 in 8.0 mi WNW 16.1 mph - N/A   Overcast
1:43 AM 12.0 °F -4.0 °F 7.0 °F 80% 30.09 in 1.8 mi WNW 15.0 mph - 0.00 in Snow Light Snow
1:53 AM 12.0 °F -2.7 °F 7.0 °F 80% 30.14 in 1.2 mi West 12.7 mph - 0.00 in Snow Light Snow
2:02 AM 10.9 °F -3.4 °F 6.1 °F 81% 30.09 in 2.0 mi WNW 11.5 mph - 0.00 in Snow Light Snow
2:11 AM 10.9 °F -2.6 °F 6.1 °F 81% 30.09 in 4.0 mi WNW 10.4 mph - 0.00 in Snow Light Snow
2:18 AM 10.9 °F -3.4 °F 6.1 °F 81% 30.09 in 8.0 mi WNW 11.5 mph - 0.00 in   Overcast
2:53 AM 10.9 °F -4.1 °F 6.1 °F 81% 30.14 in 2.5 mi WNW 12.7 mph - 0.00 in Snow Light Snow
3:00 AM 10.9 °F -4.1 °F 6.1 °F 81% 30.10 in 3.0 mi WNW 12.7 mph - 0.00 in Snow Light Snow
3:05 AM 12.0 °F -2.0 °F 6.1 °F 77% 30.10 in 1.8 mi West 11.5 mph - 0.00 in Snow Light Snow
3:31 AM 12.0 °F -4.0 °F 5.0 °F 73% 30.10 in 3.0 mi NW 15.0 mph - 0.00 in Snow Light Snow
3:38 AM 12.0 °F -5.1 °F 3.0 °F 67% 30.11 in 8.0 mi NW 17.3 mph - 0.00 in Snow Light Snow
3:53 AM 10.9 °F -4.7 °F 1.9 °F 67% 30.15 in 10.0 mi NW 13.8 mph - 0.00 in   Overcast
4:53 AM 10.0 °F -3.7 °F 3.0 °F 73% 30.15 in 10.0 mi WNW 10.4 mph - N/A   Partly Cloudy
5:14 AM 10.0 °F -3.7 °F 3.9 °F 76% 30.11 in 2.5 mi West 10.4 mph - 0.00 in Snow Light Snow
5:24 AM 10.0 °F -3.7 °F 5.0 °F 80% 30.11 in 1.8 mi West 10.4 mph - 0.00 in Snow Light Snow
5:34 AM 10.0 °F -5.9 °F 3.9 °F 76% 30.11 in 2.5 mi West 13.8 mph - 0.00 in Snow Light Snow
5:50 AM 8.6 °F -7.0 °F 3.2 °F 79% 30.11 in 3.0 mi West 12.7 mph - 0.00 in Snow Light Snow
5:53 AM 9.0 °F -7.3 °F 3.9 °F 80% 30.16 in 3.0 mi West 13.8 mph - 0.00 in   Haze
6:53 AM 8.1 °F -6.2 °F 3.0 °F 80% 30.17 in 4.0 mi West 10.4 mph - N/A   Haze
7:19 AM 8.1 °F -6.2 °F 3.0 °F 80% 30.12 in 1.8 mi West 10.4 mph - 0.00 in Snow Light Snow
7:31 AM 8.1 °F -6.2 °F 3.0 °F 80% 30.12 in 3.0 mi West 10.4 mph - 0.00 in   Haze
7:53 AM 8.1 °F -6.2 °F 3.0 °F 80% 30.18 in 4.0 mi West 10.4 mph - 0.00 in   Haze
8:00 AM 8.1 °F -5.3 °F 3.0 °F 80% 30.13 in 1.8 mi WSW 9.2 mph - 0.00 in Snow Light Snow
8:25 AM 8.1 °F -6.2 °F 3.0 °F 80% 30.14 in 4.0 mi West 10.4 mph - 0.00 in Snow Light Snow
8:36 AM 8.1 °F -7.0 °F 3.0 °F 80% 30.14 in 7.0 mi West 11.5 mph - 0.00 in   Overcast
8:53 AM 8.1 °F -7.0 °F 1.9 °F 76% 30.19 in 8.0 mi West 11.5 mph - 0.00 in   Overcast
9:53 AM 10.0 °F -5.9 °F 3.0 °F 73% 30.18 in 10.0 mi West 13.8 mph - N/A   Mostly Cloudy
10:01 AM 10.0 °F -7.1 °F 3.0 °F 73% 30.13 in 10.0 mi WSW 16.1 mph - N/A   Mostly Cloudy
10:41 AM 10.0 °F -7.1 °F 3.0 °F 73% 30.13 in 2.5 mi West 16.1 mph - 0.00 in Snow Light Snow
10:53 AM 10.0 °F -5.9 °F 1.9 °F 70% 30.18 in 2.5 mi West 13.8 mph - 0.00 in   Haze
11:01 AM 10.9 °F -5.4 °F 3.0 °F 70% 30.13 in 4.0 mi WSW 15.0 mph - N/A   Haze
11:23 AM 10.9 °F -4.7 °F 3.0 °F 70% 30.12 in 6.0 mi WSW 13.8 mph - N/A   Haze
11:53 AM 10.0 °F -6.5 °F 1.0 °F 67% 30.17 in 5.0 mi WSW 15.0 mph - N/A   Haze
12:53 PM 10.0 °F -5.9 °F -0.0 °F 64% 30.13 in 10.0 mi West 13.8 mph - N/A   Mostly Cloudy
1:23 PM 12.0 °F -4.0 °F -0.9 °F 56% 30.05 in 10.0 mi WSW 15.0 mph - N/A   Scattered Clouds
1:53 PM 12.0 °F -4.0 °F -2.0 °F 53% 30.09 in 10.0 mi WSW 15.0 mph - N/A   Clear
2:53 PM 12.9 °F -2.8 °F -0.0 °F 56% 30.03 in 10.0 mi SW 15.0 mph - N/A   Clear
3:53 PM 12.9 °F -3.9 °F -0.9 °F 54% 29.99 in 10.0 mi SW 17.3 mph - N/A   Scattered Clouds
4:53 PM 14.0 °F -3.0 °F -0.0 °F 54% 29.95 in 10.0 mi WSW 18.4 mph - N/A   Clear
5:53 PM 12.9 °F -3.4 °F -0.0 °F 56% 29.91 in 10.0 mi SW 16.1 mph - N/A   Clear
6:53 PM 12.9 °F -0.9 °F 1.0 °F 59% 29.88 in 10.0 mi WSW 11.5 mph - N/A   Partly Cloudy
7:53 PM 14.0 °F -0.8 °F 3.9 °F 64% 29.84 in 10.0 mi SW 13.8 mph - N/A   Partly Cloudy
8:53 PM 15.1 °F -2.5 °F 5.0 °F 64% 29.82 in 10.0 mi SW 20.7 mph - N/A   Overcast
9:53 PM 15.1 °F -2.0 °F 5.0 °F 64% 29.81 in 10.0 mi SW 19.6 mph 28.8 mph N/A   Overcast
10:53 PM 14.0 °F -2.5 °F 3.9 °F 64% 29.77 in 10.0 mi SW 17.3 mph 26.5 mph N/A   Scattered Clouds
11:53 PM 15.1 °F -1.6 °F 5.0 °F 64% 29.71 in 10.0 mi WSW 18.4 mph - N/A   Overcast